User: anonymous   Login
Location: Boca do Mato
(22.9085°S, 43.2930°W)
Time: 09:52:12
(UTC+00:00)
Language:

Cosmos 1455 Rocket - Orbit

View from above orbital plane
View from above orbital plane
View from above satellite
View from above satellite

Ground track
Ground track

The orbit data is extracted from the following two-line orbital elements,

1 14033U 83037B   20269.82568451 +.00000077 +00000-0 +63306-5 0  9997
2 14033 082.5053 303.5454 0019078 124.9165 235.3847 14.83818615635958
Epoch (UTC): 25 September 2020 19:48:59
Eccentricity: 0.0019078
inclination: 82.5053°
perigee height: 604 km
apogee height: 630 km
right ascension of ascending node: 303.5454°
argument of perigee: 124.9165°
revolutions per day: 14.83818615
mean anomaly at epoch: 235.3847°
orbit number at epoch: 63595

The dashed part of the orbit path shows where the satellite is in the earth's shadow,  

DLR